TimeMST,TemperatureF,Dew PointF,Humidity,Sea Level PressureIn,VisibilityMPH,Wind Direction,Wind SpeedMPH,Gust SpeedMPH,PrecipitationIn,Events,Conditions,WindDirDegrees,DateUTC
12:53 AM,10.0,1.0,67,30.53,10.0,NE,3.5,-,N/A,,Clear,40,2013-01-06 07:53:00
1:53 AM,9.0,-0.0,67,30.51,10.0,ENE,3.5,-,N/A,,Clear,70,2013-01-06 08:53:00
3:53 AM,5.0,-2.9,70,30.48,10.0,Calm,Calm,-,N/A,,Clear,0,2013-01-06 10:53:00
4:53 AM,5.0,-4.0,66,30.51,10.0,Calm,Calm,-,N/A,,Clear,0,2013-01-06 11:53:00
5:53 AM,3.0,-5.1,69,30.61,10.0,Calm,Calm,-,N/A,,Clear,0,2013-01-06 12:53:00
6:53 AM,1.0,-7.1,69,30.66,10.0,Calm,Calm,-,N/A,,Clear,0,2013-01-06 13:53:00
7:53 AM,3.0,-5.1,69,30.69,10.0,Calm,Calm,-,N/A,,Clear,0,2013-01-06 14:53:00
8:53 AM,12.0,1.0,61,30.61,10.0,Calm,Calm,-,N/A,,Clear,0,2013-01-06 15:53:00
9:53 AM,17.1,3.9,56,30.59,10.0,Calm,Calm,-,N/A,,Clear,0,2013-01-06 16:53:00
10:53 AM,25.0,7.0,46,30.52,10.0,Calm,Calm,-,N/A,,Clear,0,2013-01-06 17:53:00
11:53 AM,32.0,10.9,42,30.42,10.0,Calm,Calm,-,N/A,,Clear,0,2013-01-06 18:53:00
12:53 PM,37.9,14.0,38,30.33,10.0,West,3.5,-,N/A,,Clear,280,2013-01-06 19:53:00
1:53 PM,44.1,12.0,27,30.24,10.0,Calm,Calm,-,N/A,,Clear,0,2013-01-06 20:53:00
2:53 PM,46.9,14.0,27,30.24,10.0,NE,6.9,-,N/A,,Clear,40,2013-01-06 21:53:00
3:53 PM,46.0,15.1,29,30.22,10.0,ENE,8.1,-,N/A,,Clear,60,2013-01-06 22:53:00
4:53 PM,39.9,17.1,40,30.25,10.0,NE,8.1,-,N/A,,Clear,50,2013-01-06 23:53:00
5:53 PM,37.0,16.0,42,30.29,10.0,NE,6.9,-,N/A,,Clear,50,2013-01-07 00:53:00
6:53 PM,35.1,14.0,42,30.32,10.0,ENE,5.8,-,N/A,,Clear,70,2013-01-07 01:53:00
7:53 PM,28.9,12.9,51,30.35,10.0,Calm,Calm,-,N/A,,Clear,0,2013-01-07 02:53:00
8:53 PM,24.1,10.9,57,30.31,10.0,Calm,Calm,-,N/A,,Clear,0,2013-01-07 03:53:00
9:53 PM,19.0,8.1,62,30.30,10.0,Calm,Calm,-,N/A,,Clear,0,2013-01-07 04:53:00
10:53 PM,18.0,8.1,65,30.22,10.0,Calm,Calm,-,N/A,,Clear,0,2013-01-07 05:53:00
11:53 PM,17.1,8.1,68,30.17,10.0,Calm,Calm,-,N/A,,Clear,0,2013-01-07 06:53:00